Stations météo

réclame
Mon MeteoGroup
Saarbrücken-Ensheim, Allemagne (10708): Température de l'air & dewpoint: 18.02.2018 23:00:00 - 24.02.2018 23:00:00 (CET)Saarbrücken-Ensheim, Allemagne (10708): Température de l'air 5cm & Température de l'air -5cm: 18.02.2018 23:00:00 - 24.02.2018 23:00:00 (CET)Saarbrücken-Ensheim, Allemagne (10708): Température de l'air -20cm & Température de l'air -100cm: 18.02.2018 23:00:00 - 24.02.2018 23:00:00 (CET)Saarbrücken-Ensheim, Allemagne (10708): Vitesse du vent & gusts: 18.02.2018 23:00:00 - 24.02.2018 23:00:00 (CET)Saarbrücken-Ensheim, Allemagne (10708): Direction du vent: 18.02.2018 23:00:00 - 24.02.2018 23:00:00 (CET)Saarbrücken-Ensheim, Allemagne (10708): reduced air pressure: 18.02.2018 23:00:00 - 24.02.2018 23:00:00 (CET)Saarbrücken-Ensheim, Allemagne (10708): visibility: 18.02.2018 23:00:00 - 24.02.2018 23:00:00 (CET)Saarbrücken-Ensheim, Allemagne (10708): Ensoleillement: 18.02.2018 23:00:00 - 24.02.2018 23:00:00 (CET)Saarbrücken-Ensheim, Allemagne (10708): Quantités de précipitations: 18.02.2018 23:00:00 - 24.02.2018 23:00:00 (CET)
Date & Time tt [°C] td [°C] tt 5cm [°C] tt -5cm [°C] tt -20cm [°C] tt -100cm [°C] ff [km/h] ff [knt] fx [km/h] fx [knt] dd ppp [hPa] vv [km] sd [min] rr [mm]
24.02.2018 23:00:00 - - - - - - - - - - - - - - -
24.02.2018 22:00:00 -2,1 -11,2 -3,2 -0,1 0,9 4,7 28 15 51 28 ENE 1022,1 10 0 0,0
24.02.2018 21:00:00 -1,7 -10,4 -2,9 -0,1 0,9 4,7 32 18 53 29 ENE 1021,9 35 0 0,0
24.02.2018 20:00:00 -1,1 -9,7 -2,3 -0,1 0,9 4,7 31 17 50 27 ENE 1021,4 30 0 0,0
24.02.2018 19:00:00 0,0 -8,5 -1,2 -0,1 0,9 4,8 29 16 51 27 ENE 1020,7 30 0 0,0
24.02.2018 18:00:00 1,3 -9,1 0,1 -0,1 0,8 4,8 31 17 56 30 ENE 1019,7 30 60 0,0
24.02.2018 17:00:00 2,9 -10,4 1,9 0,2 0,8 4,8 29 16 56 30 ENE 1018,9 10 60 0,0
24.02.2018 16:00:00 3,6 -11,4 3,6 0,2 0,8 4,8 34 18 54 29 ENE 1018,3 10 60 0,0
24.02.2018 15:00:00 3,7 -11,9 4,4 -0,1 0,8 4,8 34 18 59 32 ENE 1018,2 30 60 0,0
24.02.2018 14:00:00 3,6 -12,2 5,0 -0,2 0,8 4,8 31 17 58 31 ENE 1018,2 10 60 0,0
24.02.2018 13:00:00 3,3 -12,4 4,6 -0,3 0,8 4,8 35 19 53 29 ENE 1018,1 10 60 0,0
24.02.2018 12:00:00 1,1 -11,5 2,8 -0,4 0,8 4,8 32 17 53 29 ENE 1018,8 20 60 0,0
24.02.2018 11:00:00 -1,4 -10,4 0,1 -0,5 0,8 4,8 32 18 57 31 ENE 1019,1 15 60 0,0
24.02.2018 10:00:00 -3,1 -10,3 -2,2 -0,8 0,9 4,8 36 19 58 31 ENE 1019,4 15 60 0,0
24.02.2018 09:00:00 -4,7 -10,5 -4,9 -0,9 0,9 4,8 34 18 53 28 ENE 1019,5 10 60 0,0
24.02.2018 08:00:00 -5,5 -10,5 -6,3 -0,8 0,9 4,8 31 17 48 26 ENE 1019,3 15 4 0,0
24.02.2018 07:00:00 -5,2 -10,3 -6,1 -0,7 0,9 4,8 30 16 50 27 ENE 1018,6 15 0 0,0
24.02.2018 06:00:00 -5,0 -10,3 -6,0 -0,5 1,0 4,8 26 14 51 27 ENE 1018,4 10 0 0,0
24.02.2018 05:00:00 -4,8 -10,1 -5,8 -0,4 1,0 4,8 31 17 48 26 ENE 1018,0 20 0 0,0
24.02.2018 04:00:00 -4,5 -10,1 -5,4 -0,3 1,0 4,8 29 16 45 24 ENE 1017,9 10 0 0,0
24.02.2018 03:00:00 -3,8 -9,7 -4,8 -0,2 1,0 4,8 28 15 44 24 ENE 1018,1 10 0 0,0
24.02.2018 02:00:00 -3,3 -9,8 -4,3 -0,1 1,0 4,8 29 16 47 25 ENE 1018,2 25 0 0,0
24.02.2018 01:00:00 -3,0 -9,9 -4,0 -0,1 1,0 4,8 26 14 44 24 ENE 1018,0 10 0 0,0
24.02.2018 00:00:00 -2,5 -9,9 -3,5 -0,1 1,0 4,8 32 17 46 25 ENE 1017,8 25 0 0,0
23.02.2018 23:00:00 -2,1 -10,1 -3,2 0,0 1,0 4,8 26 14 44 24 ENE 1018,1 10 0 0,0
23.02.2018 22:00:00 -1,8 -10,0 -3,1 -0,1 1,0 4,8 21 11 37 20 ENE 1017,8 25 0 0,0
23.02.2018 21:00:00 -1,3 -10,2 -2,6 -0,1 1,0 4,8 22 12 35 19 ENE 1017,5 30 0 0,0
23.02.2018 20:00:00 -0,8 -10,2 -2,2 -0,1 1,0 4,9 25 14 40 22 ENE 1017,7 30 0 0,0
23.02.2018 19:00:00 -0,6 -10,3 -2,1 -0,1 1,0 4,9 21 11 47 25 ENE 1017,5 10 0 0,0
23.02.2018 18:00:00 0,2 -10,1 -1,1 -0,1 1,0 4,9 25 14 42 23 E 1017,1 30 52 0,0
23.02.2018 17:00:00 1,0 -9,3 0,1 0,0 1,0 4,9 25 13 47 25 ENE 1016,7 30 60 0,0
23.02.2018 16:00:00 1,4 -8,7 1,5 0,1 1,0 4,9 28 15 47 25 ENE 1016,7 10 60 0,0
23.02.2018 15:00:00 1,4 -8,3 2,4 -0,1 1,0 4,9 29 15 45 24 ENE 1016,6 30 60 0,0
23.02.2018 14:00:00 0,7 -8,4 2,4 -0,2 1,0 4,9 26 14 44 24 ENE 1017,0 10 60 0,0
23.02.2018 13:00:00 0,1 -8,3 1,8 -0,2 1,0 4,9 26 14 42 23 NE 1017,7 10 60 0,0
23.02.2018 12:00:00 -0,6 -8,6 1,4 -0,3 1,0 4,9 26 14 42 23 NE 1018,3 10 60 0,0
23.02.2018 11:00:00 -1,8 -9,1 -0,2 -0,4 1,0 4,9 30 16 48 26 E 1018,7 35 60 0,0
23.02.2018 10:00:00 -2,6 -9,3 -1,8 -0,6 1,0 4,9 26 14 44 24 ENE 1018,4 10 60 0,0
23.02.2018 09:00:00 -3,8 -10,2 -4,1 -0,7 1,0 4,9 23 12 41 22 ENE 1018,4 35 60 0,0
23.02.2018 08:00:00 -4,5 -10,2 -5,5 -0,7 1,1 4,9 21 11 44 24 ENE 1018,3 35 3 0,0
23.02.2018 07:00:00 -4,5 -9,8 -5,8 -0,6 1,1 4,9 20 11 37 20 ENE 1018,1 30 0 0,0
23.02.2018 06:00:00 -4,1 -9,7 -5,3 -0,4 1,1 4,9 21 11 42 23 ENE 1018,0 10 0 0,0
23.02.2018 05:00:00 -3,7 -9,6 -4,8 -0,3 1,2 4,9 24 13 36 19 ENE 1017,8 35 0 0,0
23.02.2018 04:00:00 -3,8 -9,4 -5,3 -0,2 1,2 4,9 19 10 35 19 ENE 1018,0 40 0 0,0
23.02.2018 03:00:00 -3,4 -9,3 -4,7 -0,2 1,2 4,9 21 11 40 21 NE 1018,4 10 0 0,0
23.02.2018 02:00:00 -2,9 -9,2 -4,2 -0,1 1,3 4,9 27 15 44 24 ENE 1018,5 40 0 0,0
23.02.2018 01:00:00 -2,8 -9,1 -4,1 0,0 1,3 4,9 24 13 40 22 NE 1018,8 10 0 0,0
23.02.2018 00:00:00 -2,5 -9,1 -3,7 0,1 1,3 4,9 24 13 40 22 NE 1019,1 10 0 0,0
22.02.2018 23:00:00 -2,0 -9,1 -3,0 0,1 1,3 4,9 24 13 41 22 NE 1018,9 10 0 0,0
22.02.2018 22:00:00 -1,7 -8,6 -3,1 0,2 1,3 4,9 22 12 38 21 NE 1018,8 10 0 0,0
22.02.2018 21:00:00 -1,2 -8,5 -2,3 0,2 1,3 4,9 24 13 43 23 NE 1018,8 10 0 0,0
22.02.2018 20:00:00 -0,4 -8,1 -1,2 0,2 1,3 4,9 28 15 48 26 NE 1018,7 10 0 0,0
22.02.2018 19:00:00 0,0 -8,0 -0,7 0,2 1,3 4,9 24 13 39 21 NE 1018,3 10 0 0,0
22.02.2018 18:00:00 0,4 -7,8 -0,3 0,1 1,3 4,9 22 12 46 25 NE 1017,8 10 0 0,0
22.02.2018 17:00:00 0,8 -7,9 0,3 0,1 1,3 4,9 24 13 51 27 NE 1017,7 40 3 0,0
22.02.2018 16:00:00 2,0 -8,1 2,0 0,0 1,3 4,9 29 16 55 30 NE 1017,5 10 27 0,0
22.02.2018 15:00:00 2,1 -9,2 2,0 -0,1 1,3 4,9 29 16 53 29 NE 1017,4 10 60 0,0
22.02.2018 14:00:00 2,0 -9,0 2,1 -0,1 1,3 4,9 26 14 51 28 ENE 1017,8 10 60 0,0
22.02.2018 13:00:00 1,6 -8,8 2,9 -0,1 1,3 4,9 31 17 58 31 ENE 1018,3 10 60 0,0
22.02.2018 12:00:00 0,8 -9,0 2,2 -0,2 1,3 4,9 31 17 53 29 ENE 1018,9 10 60 0,0
22.02.2018 11:00:00 -0,1 -8,9 1,2 -0,2 1,3 4,9 28 15 54 29 ENE 1019,1 25 60 0,0
22.02.2018 10:00:00 -1,0 -7,9 -0,3 -0,3 1,4 4,9 29 16 46 25 ENE 1019,4 25 60 0,0
22.02.2018 09:00:00 -2,4 -7,4 -2,9 -0,3 1,4 4,9 28 15 47 25 ENE 1019,5 10 60 0,0
22.02.2018 08:00:00 -3,2 -7,4 -4,3 -0,3 1,5 4,9 25 14 41 22 ENE 1019,5 15 1 0,0
22.02.2018 07:00:00 -3,3 -7,3 -4,7 -0,2 1,5 4,9 24 13 38 20 ENE 1019,4 10 0 0,0
22.02.2018 06:00:00 -3,3 -7,4 -4,6 -0,1 1,6 4,9 23 12 38 20 ENE 1019,6 15 0 0,0
22.02.2018 05:00:00 -3,2 -7,3 -4,3 -0,1 1,7 4,9 22 12 35 19 NE 1019,5 10 0 0,0
22.02.2018 04:00:00 -3,2 -6,9 -4,5 0,0 1,7 4,9 21 11 37 20 NE 1019,9 15 0 0,0
22.02.2018 03:00:00 -2,8 -6,9 -4,0 0,1 1,8 4,9 22 12 39 21 ENE 1020,3 15 0 0,0
22.02.2018 02:00:00 -2,5 -6,8 -3,7 0,2 1,9 5,0 21 11 38 21 NE 1020,3 20 0 0,0
22.02.2018 01:00:00 -2,2 -6,5 -3,5 0,4 2,0 5,0 22 12 38 21 ENE 1020,7 20 0 0,0
22.02.2018 00:00:00 -1,5 -6,4 -2,7 0,5 2,1 5,0 21 12 37 20 ENE 1020,9 20 0 0,0
21.02.2018 23:00:00 -0,8 -6,1 -2,3 0,7 2,2 5,0 21 12 38 21 ENE 1020,9 20 0 0,0
21.02.2018 22:00:00 -0,2 -5,8 -1,6 0,8 2,3 5,0 24 13 44 24 NE 1020,9 10 0 0,0
21.02.2018 21:00:00 0,2 -5,6 -1,2 1,0 2,4 5,0 26 14 39 21 ENE 1020,8 20 0 0,0
21.02.2018 20:00:00 1,0 -5,7 -0,4 1,3 2,5 5,0 28 15 41 22 ENE 1020,7 20 0 0,0
21.02.2018 19:00:00 1,4 -5,8 -0,1 1,5 2,7 5,0 16 9 24 13 NE 1020,6 25 0 0,0
21.02.2018 18:00:00 2,3 -6,3 0,2 2,4 2,8 5,0 16 9 35 19 ENE 1020,0 10 54 0,0
21.02.2018 17:00:00 3,8 -6,9 2,5 3,6 2,7 5,0 21 12 37 20 ENE 1019,7 30 60 0,0
21.02.2018 16:00:00 4,4 -7,5 4,0 4,5 2,4 5,0 25 14 41 22 NE 1019,7 30 60 0,0
21.02.2018 15:00:00 4,4 -6,8 4,7 4,5 2,0 5,0 24 13 36 20 NE 1019,9 10 60 0,0
21.02.2018 14:00:00 3,5 -6,2 4,6 3,5 1,7 5,0 19 10 35 19 NE 1020,6 20 60 0,0
21.02.2018 13:00:00 2,9 -4,9 4,2 1,3 1,6 5,0 20 11 37 20 ENE 1021,4 10 60 0,0
21.02.2018 12:00:00 1,4 -4,5 2,7 0,2 1,6 5,0 22 12 35 19 NE 1021,8 10 60 0,0
21.02.2018 11:00:00 0,7 -4,0 1,6 0,2 1,6 5,0 22 12 36 20 NE 1022,2 8 60 0,0
21.02.2018 10:00:00 -0,5 -4,3 0,0 0,2 1,7 5,0 21 11 31 17 NE 1022,3 8 60 0,0
21.02.2018 09:00:00 -1,7 -4,8 -2,2 0,2 1,7 5,0 18 10 28 15 NE 1022,2 5 30 0,0
21.02.2018 08:00:00 -2,7 -5,4 -4,1 0,2 1,8 5,0 11 6 21 11 NE 1022,1 5 0 0,0
21.02.2018 07:00:00 -3,0 -6,0 -5,0 0,4 1,8 5,0 10 5 24 13 ENE 1021,7 10 0 0,0
21.02.2018 06:00:00 -2,2 -5,6 -3,7 0,4 1,9 5,0 15 8 24 13 ENE 1021,5 10 0 0,0
21.02.2018 05:00:00 -0,9 -5,3 -1,7 0,5 1,9 5,0 13 7 28 15 NE 1021,6 10 0 0,0
21.02.2018 04:00:00 -0,7 -5,0 -1,1 0,5 2,0 5,0 13 7 24 13 NE 1021,4 10 0 0,0
21.02.2018 03:00:00 -0,5 -5,4 -1,0 0,6 2,1 5,0 15 8 22 12 NE 1021,0 10 0 0,0
21.02.2018 02:00:00 -0,7 -5,1 -1,2 0,6 2,1 5,0 11 6 16 9 NE 1021,0 10 0 0,0
21.02.2018 01:00:00 -0,6 -5,3 -1,4 0,7 2,2 5,0 14 8 22 12 NNE 1020,2 10 0 0,0
21.02.2018 00:00:00 -1,8 -5,2 -4,0 0,8 2,3 5,0 9 5 16 9 NE 1020,2 10 0 0,0
20.02.2018 23:00:00 -0,7 -4,3 -2,0 0,9 2,5 5,0 11 6 21 11 NNE 1019,8 10 0 0,0
20.02.2018 22:00:00 -0,2 -4,3 -1,7 1,1 2,6 5,0 9 5 21 11 NE 1019,4 10 0 0,0
20.02.2018 21:00:00 -1,0 -4,8 -3,5 1,3 2,7 5,0 9 5 15 8 ENE 1019,4 10 0 0,0
20.02.2018 20:00:00 -0,2 -4,0 -1,8 1,6 2,9 5,0 11 6 18 10 E 1018,8 20 0 0,0
20.02.2018 19:00:00 -0,9 -4,5 -3,2 2,0 3,1 5,0 5 3 8 4 NE 1018,4 10 0 0,0
20.02.2018 18:00:00 1,2 -4,9 -0,8 3,0 3,2 5,0 5 3 8 4 NE 1017,8 10 0 0,0
20.02.2018 17:00:00 1,3 -4,9 -0,4 4,3 3,1 5,0 6 4 16 9 NE 1017,5 25 0 0,0
20.02.2018 16:00:00 2,7 -4,9 2,9 5,4 2,9 5,0 9 5 21 11 NE 1016,6 10 5 0,0
20.02.2018 15:00:00 2,7 -5,0 3,4 5,8 2,5 5,0 11 6 18 10 NE 1017,0 10 36 0,0
20.02.2018 14:00:00 1,9 -5,4 3,9 5,1 2,1 5,0 4 2 16 9 ENE 1017,5 25 46 0,0
20.02.2018 13:00:00 1,6 -5,5 3,2 4,2 1,7 5,0 9 5 23 12 E 1017,7 10 43 0,0
20.02.2018 12:00:00 1,2 -6,5 4,1 1,7 1,6 5,0 15 8 29 16 ESE 1017,9 25 54 0,0
20.02.2018 11:00:00 0,1 -5,6 1,0 0,5 1,6 5,0 16 9 25 13 E 1017,9 10 4 0,0
20.02.2018 10:00:00 -0,2 -4,5 0,1 0,5 1,6 5,0 13 7 24 13 E 1018,1 20 0 0,0
20.02.2018 09:00:00 -0,8 -4,9 -1,0 0,5 1,6 5,0 10 5 15 8 ENE 1018,2 15 0 0,0
20.02.2018 08:00:00 -1,3 -4,5 -1,6 0,5 1,6 5,1 8 5 15 8 NE 1017,8 15 0 0,0
20.02.2018 07:00:00 -1,2 -4,2 -1,4 0,5 1,6 5,1 8 4 13 7 NE 1017,7 15 0 0,0
20.02.2018 06:00:00 -1,3 -3,7 -1,7 0,5 1,6 5,1 5 3 11 6 NNE 1017,5 10 0 0,0
20.02.2018 05:00:00 -1,4 -3,5 -2,0 0,5 1,6 5,1 9 5 16 9 NE 1017,2 12 0 0,0
20.02.2018 04:00:00 -1,3 -3,2 -1,7 0,6 1,7 5,1 5 3 9 5 NE 1017,3 10 0 0,0
20.02.2018 03:00:00 -1,2 -3,0 -1,6 0,6 1,7 5,1 8 4 11 6 NE 1017,4 10 0 0,0
20.02.2018 02:00:00 -1,4 -3,1 -2,4 0,6 1,7 5,1 4 2 5 3 - 1017,6 10 0 0,0
20.02.2018 01:00:00 -0,9 -3,2 -1,7 0,6 1,7 5,1 4 2 5 3 NE 1017,9 16 0 0,0
20.02.2018 00:00:00 -0,9 -3,2 -1,6 0,5 1,8 5,1 2 1 0 0 ENE 1017,8 10 0 0,0
19.02.2018 23:00:00 -1,1 -3,3 -2,0 0,4 1,8 5,1 2 1 4 2 N 1018,2 10 0 0,0
19.02.2018 22:00:00 -0,6 -2,9 -1,4 0,6 1,9 5,1 2 1 4 2 E 1018,6 10 0 0,0
19.02.2018 21:00:00 -0,4 -3,3 -1,2 0,8 1,9 5,1 2 1 4 2 SSE 1018,6 10 0 0,0
19.02.2018 20:00:00 -0,1 -3,8 -0,8 1,0 2,0 5,1 2 1 8 4 - 1018,7 10 0 0,0
19.02.2018 19:00:00 0,0 -3,6 -0,8 1,3 2,0 5,1 7 4 11 6 S 1018,9 20 0 0,0
19.02.2018 18:00:00 0,4 -4,3 0,0 1,7 1,9 5,1 4 2 8 4 SSE 1019,0 10 0 0,0
19.02.2018 17:00:00 0,7 -4,2 0,7 2,0 1,8 5,1 5 3 8 4 SSE 1019,2 25 0 0,0
19.02.2018 16:00:00 0,7 -4,3 1,2 1,8 1,7 5,1 4 2 8 4 - 1019,4 10 0 0,0
19.02.2018 15:00:00 0,7 -4,4 1,5 0,9 1,6 5,1 4 2 9 5 - 1019,7 10 0 0,0
19.02.2018 14:00:00 0,6 -4,5 1,5 0,4 1,6 5,1 4 2 9 5 E 1019,9 25 0 0,0
19.02.2018 13:00:00 0,6 -3,8 0,9 0,4 1,6 5,1 4 2 9 5 - 1020,7 10 0 0,0
19.02.2018 12:00:00 0,4 -4,0 0,8 0,4 1,6 5,1 4 2 9 5 - 1021,1 10 0 0,0
19.02.2018 11:00:00 0,1 -4,2 0,5 0,4 1,6 5,1 4 2 11 6 ESE 1021,4 25 0 0,0
19.02.2018 10:00:00 -0,1 -3,4 -0,1 0,4 1,7 5,1 5 3 11 6 E 1021,6 10 0 0,0
19.02.2018 09:00:00 -0,4 -4,1 -0,6 0,4 1,7 5,1 0 0 5 3 N 1022,3 20 0 0,0
19.02.2018 08:00:00 -0,6 -3,9 -1,0 0,5 1,7 5,1 2 1 4 2 ESE 1022,2 20 0 0,0
19.02.2018 07:00:00 -0,5 -3,7 -1,1 0,5 1,7 5,1 3 2 13 7 SE 1022,4 20 0 0,0
19.02.2018 06:00:00 -0,6 -3,7 -1,0 0,5 1,7 5,1 4 2 15 8 ESE 1022,6 20 0 0,0
19.02.2018 05:00:00 -0,7 -3,8 -1,0 0,5 1,8 5,1 7 4 11 6 ESE 1022,8 20 0 0,0
19.02.2018 04:00:00 -0,8 -3,4 -1,2 0,5 1,8 5,1 8 4 15 8 ENE 1023,3 10 0 0,0
19.02.2018 03:00:00 -0,8 -3,8 -1,2 0,5 1,8 5,1 9 5 16 9 E 1023,7 10 0 0,0
19.02.2018 02:00:00 -0,9 -3,5 -1,3 0,5 1,9 5,1 9 5 22 12 E 1024,3 10 0 0,0
19.02.2018 01:00:00 -0,8 -3,3 -1,1 0,6 1,9 5,1 13 7 21 11 E 1024,7 10 0 0,0
19.02.2018 00:00:00 -0,9 -3,3 -1,2 0,6 2,0 5,1 13 7 28 15 E 1025,3 10 0 0,0
18.02.2018 23:00:00 -1,3 -3,4 -2,3 0,7 2,1 5,1 16 9 27 15 E 1025,6 10 0 0,0

tt = Température de l'air
td = dewpoint
tt 5cm = Température de l'air 5cm
tt -5cm = Température de l'air -5cm
tt -20cm = Température de l'air -20cm
tt -100cm = Température de l'air -100cm
ff = Vitesse du vent
fx = gusts
dd = Direction du vent
ppp = reduced air pressure
vv = visibility
sd = Ensoleillement
rr = Quantités de précipitations

stations d'obs. à proximité